User: anonymous   Login
Location: Unspecified
(0.0000°N, 0.0000°E)
Time: 15:13:30
(UTC+00:00)
Language:

HEATHSAT - Orbit

View from above orbital plane
View from above orbital plane
View from above satellite
View from above satellite

Ground track
Ground track

The orbit data is extracted from the following two-line orbital elements,

1 22827U 93061E   18051.95102443 +.00000021 +00000-0 +25547-4 0  9993
2 22827 098.8492 032.2626 0007883 282.3896 140.0180 14.31244781273379
Epoch (UTC): 20 February 2018 22:49:28
Eccentricity: 0.0007883
inclination: 98.8492°
perigee height: 782 km
apogee height: 793 km
right ascension of ascending node: 32.2626°
argument of perigee: 282.3896°
revolutions per day: 14.31244781
mean anomaly at epoch: 140.0180°
orbit number at epoch: 27337

The dashed part of the orbit path shows where the satellite is in the earth's shadow,  

DLR